User: anonymous   Login
Location: Zagreb
(45.8000°N, 16.0000°E)
Time: 01:40:30
(UTC+01:00)
Language:

Altair - Orbit

View from above orbital plane
View from above orbital plane
View from above satellite
View from above satellite

Ground track
Ground track

The orbit data is extracted from the following two-line orbital elements,

1 00050U 60009B   21015.52006880 -.00000051  00000-0  31580-3 0  9995
2 00050  47.2287 183.0867 0113450 237.5408 121.4370 12.20114220696119
Epoch (UTC): 15 January 2021 12:28:53
Eccentricity: 0.0113450
inclination: 47.2287°
perigee height: 1501 km
apogee height: 1682 km
right ascension of ascending node: 183.0867°
argument of perigee: 237.5408°
revolutions per day: 12.20114220
mean anomaly at epoch: 121.4370°
orbit number at epoch: 69611

The dashed part of the orbit path shows where the satellite is in the earth's shadow,  

DLR